| time (UTC) | temp F | wind direction | speed knots | gust knots | rain 1hr in | rain 24hr in | rain mn in | humidity % | barometer mb |
| 20260505101539 | 44 | 241 | 2.6 | 7.0 | 0.00 | 0.01 | 0.00 | 89 | 1011.0 |
| 20260505100037 | 43 | 207 | 1.7 | 5.2 | 0.00 | 0.01 | 0.00 | 90 | 1010.8 |
| 20260505094536 | 42 | 231 | 0.9 | 6.1 | 0.00 | 0.02 | 0.00 | 90 | 1010.7 |
| 20260505093039 | 41 | 255 | 1.7 | 7.8 | 0.00 | 0.02 | 0.00 | 91 | 1010.6 |
| 20260505091531 | 40 | 249 | 0.0 | 2.6 | 0.00 | 0.02 | 0.00 | 92 | 1010.4 |
| 20260505090040 | 38 | 250 | 0.0 | 1.7 | 0.00 | 0.02 | 0.00 | 92 | 1010.2 |
| 20260505084529 | 38 | 250 | 0.0 | 3.5 | 0.00 | 0.02 | 0.00 | 91 | 1009.9 |
| 20260505083026 | 38 | 223 | 0.9 | 2.6 | 0.00 | 0.02 | 0.00 | 91 | 1009.6 |
| 20260505081523 | 38 | 257 | 0.9 | 2.6 | 0.00 | 0.02 | 0.00 | 91 | 1009.4 |
| 20260505080021 | 39 | 257 | 0.9 | 4.3 | 0.00 | 0.02 | 0.00 | 91 | 1009.2 |
| 20260505074519 | 39 | 248 | 1.7 | 5.2 | 0.00 | 0.03 | 0.00 | 91 | 1009.0 |
| 20260505073029 | 39 | 257 | 2.6 | 7.0 | 0.00 | 0.03 | 0.00 | 91 | 1008.8 |
| 20260505071519 | 39 | 262 | 1.7 | 5.2 | 0.00 | 0.03 | 0.00 | 91 | 1008.6 |
| 20260505070014 | 39 | 249 | 0.9 | 5.2 | 0.00 | 0.03 | 0.00 | 91 | 1008.4 |
| 20260505064530 | 39 | 250 | 1.7 | 5.2 | 0.00 | 0.03 | 0.00 | 91 | 1008.2 |
| 20260505063008 | 39 | 275 | 1.7 | 3.5 | 0.00 | 0.03 | 0.00 | 90 | 1007.9 |
| 20260505061510 | 39 | 256 | 0.9 | 2.6 | 0.00 | 0.03 | 0.00 | 90 | 1007.6 |
| 20260505060002 | 39 | 234 | 0.9 | 3.5 | 0.00 | 0.03 | 0.00 | 90 | 1007.2 |
| 20260505054628 | 40 | 269 | 0.9 | 5.2 | 0.00 | 0.04 | 0.00 | 90 | 1007.0 |
| 20260505053108 | 40 | 231 | 1.7 | 7.0 | 0.00 | 0.04 | 0.00 | 90 | 1006.7 |
| 20260505051554 | 40 | 233 | 2.6 | 7.8 | 0.00 | 0.04 | 0.00 | 90 | 1006.4 |
| 20260505041554 | 41 | 197 | 2.6 | 7.0 | 0.00 | 0.04 | 0.00 | 89 | 1005.7 |
| 20260505040040 | 42 | 250 | 1.7 | 5.2 | 0.00 | 0.04 | 0.00 | 88 | 1005.8 |
| 20260505034537 | 42 | 207 | 1.7 | 7.8 | 0.00 | 0.04 | 0.00 | 88 | 1005.7 |
| 20260505033034 | 42 | 251 | 1.7 | 5.2 | 0.00 | 0.04 | 0.00 | 86 | 1005.3 |
| 20260505031541 | 43 | 237 | 0.0 | 7.8 | 0.00 | 0.04 | 0.00 | 85 | 1004.9 |
| 20260505030025 | 44 | 234 | 3.5 | 9.6 | 0.00 | 0.04 | 0.00 | 84 | 1004.6 |
| 20260505024533 | 44 | 235 | 3.5 | 7.8 | 0.00 | 0.04 | 0.04 | 85 | 1004.4 |
| 20260505023022 | 44 | 237 | 1.7 | 7.0 | 0.00 | 0.04 | 0.04 | 85 | 1004.2 |
| 20260505021526 | 43 | 220 | 2.6 | 8.7 | 0.00 | 0.04 | 0.04 | 85 | 1004.1 |
| 20260505020029 | 42 | 137 | 2.6 | 7.8 | 0.00 | 0.04 | 0.04 | 86 | 1004.0 |
| 20260505014527 | 42 | 170 | 1.7 | 8.7 | 0.00 | 0.06 | 0.04 | 85 | 1003.9 |
| 20260505013019 | 43 | 190 | 2.6 | 8.7 | 0.00 | 0.06 | 0.04 | 82 | 1004.0 |
| 20260505011530 | 45 | 237 | 0.9 | 5.2 | 0.00 | 0.06 | 0.04 | 79 | 1004.0 |
| 20260505010018 | 45 | 222 | 2.6 | 9.6 | 0.00 | 0.06 | 0.04 | 79 | 1004.1 |
| 20260505004534 | 44 | 239 | 0.9 | 7.0 | 0.00 | 0.11 | 0.04 | 80 | 1003.9 |
| 20260505003016 | 44 | 181 | 1.7 | 7.0 | 0.00 | 0.11 | 0.04 | 80 | 1003.9 |
| 20260505001514 | 43 | 231 | 1.7 | 7.0 | 0.00 | 0.11 | 0.04 | 82 | 1003.7 |
| 20260505000020 | 43 | 186 | 4.3 | 11.3 | 0.00 | 0.11 | 0.04 | 82 | 1003.4 |
| 20260504234508 | 44 | 178 | 4.3 | 11.3 | 0.00 | 0.30 | 0.04 | 80 | 1003.0 |
| 20260504233007 | 45 | 202 | 4.3 | 9.6 | 0.00 | 0.30 | 0.04 | 76 | 1002.8 |
| 20260504231505 | 46 | 194 | 5.2 | 10.4 | 0.00 | 0.30 | 0.04 | 73 | 1002.7 |
| 20260504230005 | 51 | 222 | 3.5 | 9.6 | 0.00 | 0.30 | 0.04 | 64 | 1002.3 |
| 20260504224502 | 52 | 277 | 4.3 | 19.1 | 0.00 | 0.49 | 0.04 | 62 | 1002.3 |
| 20260504223001 | 52 | 312 | 7.8 | 14.8 | 0.00 | 0.49 | 0.04 | 62 | 1002.1 |
| 20260504221606 | 54 | 251 | 8.7 | 18.2 | 0.00 | 0.49 | 0.04 | 61 | 1001.8 |
| 20260504220101 | 54 | 258 | 8.7 | 14.8 | 0.00 | 0.49 | 0.04 | 62 | 1001.6 |
| 20260504214558 | 54 | 236 | 9.6 | 18.2 | 0.00 | 0.69 | 0.04 | 60 | 1001.5 |
| 20260504213054 | 55 | 260 | 11.3 | 20.0 | 0.00 | 0.69 | 0.04 | 58 | 1001.4 |
| 20260504211551 | 55 | 277 | 12.2 | 22.6 | 0.00 | 0.69 | 0.04 | 55 | 1001.1 |
| 20260504210050 | 55 | 245 | 15.6 | 25.2 | 0.00 | 0.69 | 0.04 | 54 | 1000.8 |
| 20260504204542 | 55 | 241 | 8.7 | 20.9 | 0.00 | 0.72 | 0.04 | 58 | 1000.7 |
| 20260504203039 | 55 | 235 | 11.3 | 21.7 | 0.00 | 0.72 | 0.04 | 56 | 1000.5 |
| 20260504201534 | 55 | 264 | 13.0 | 25.2 | 0.00 | 0.72 | 0.04 | 62 | 999.9 |
| 20260504200031 | 54 | 207 | 12.2 | 24.3 | 0.00 | 0.72 | 0.04 | 66 | 999.7 |
| 20260504194528 | 54 | 245 | 11.3 | 26.9 | 0.00 | 0.72 | 0.04 | 67 | 999.0 |
| 20260504193025 | 54 | 280 | 11.3 | 28.7 | 0.00 | 0.72 | 0.04 | 69 | 998.7 |
| 20260504191523 | 53 | 322 | 11.3 | 25.2 | 0.00 | 0.72 | 0.04 | 70 | 998.7 |
| 20260504190016 | 53 | 264 | 11.3 | 27.8 | 0.00 | 0.72 | 0.04 | 73 | 998.4 |
| 20260504184513 | 52 | 233 | 13.0 | 23.5 | 0.00 | 0.73 | 0.04 | 75 | 998.2 |
| 20260504183007 | 52 | 264 | 11.3 | 25.2 | 0.00 | 0.73 | 0.04 | 78 | 998.0 |
| 20260504181504 | 49 | 277 | 9.6 | 21.7 | 0.00 | 0.73 | 0.04 | 80 | 998.1 |
| 20260504180003 | 49 | 272 | 9.6 | 22.6 | 0.00 | 0.73 | 0.04 | 81 | 997.9 |
| 20260504174558 | 48 | 261 | 13.9 | 26.1 | 0.00 | 0.73 | 0.04 | 82 | 997.7 |
| 20260504173056 | 48 | 244 | 8.7 | 22.6 | 0.00 | 0.73 | 0.04 | 82 | 997.1 |
| 20260504171553 | 47 | 268 | 12.2 | 23.5 | 0.00 | 0.73 | 0.04 | 84 | 996.9 |